SCP
0 0 0 0 0 0 0 0 -0 0 0 0 0 0 0 0 0 -0 -0 0 0 0 0 0 0 0 0 0 0 0 0 -0 0 0 0 0 0 0 0 0 0 0 0 0 0
-0 -0 -0 -0 0 0 -0 -0 -0 0 0 0 0 0 0 0 0 0 0 0 0 0 0 0 0 0 0 0 0 0 0 0 0 0 0 0 0 0 0 0 0 0 0 0 0
-0 -0 0 0 0 -0 -0 -0 0 0 0 0 0 0 0 0 0 0 0 0 0 0 0 0 0 0 0 0 -0 -0 0 0 0 -0 0 -0 -0 -0 -0 0 0 0 0 0 0
-0 0 0 0 -0 -0 -0 -0 0 0 0 0 0 0 0 0 0 0 0 0 0 0 0 0 0 0 0 0 0 0 0 0 0 0 0 -0 -0 0 0 -0 0 0 0 0 0
-0 -0 -0 -0 -0 -0 -0 -0 0 0 0 0 0 0 0 0 0 0 0 0 0 0 0 0 0 0 0 0 0 0 0 0 0 0 0 0 0 -0 0 0 0 0 0 0 0
-0 -0 -0 -0 -0 -0 -0 -0 0 0 0 0 0 0 0 0 0 0 0 0 0 0 0 0 0 0 0 0 0 0 0 0 0 0 0 0 0 0 0 -0 0 0 0 0 0
-0 -0 -0 -0 -0 -0 -0 -0 0 0 0 0 0 0 0 0 0 0 0 0 0 0 0 0 0 0 0 0 0 0 0 0 0 0 0 0 0 0 0 -0 -0 0 -0 -0 0
-0 -0 -0 -0 -0 -0 -0 -0 0 0 0 0 0 0 0 0 0 0 0 0 0 0 0 0 0 0 0 0 0 0 0 0 0 0 0 0 -0 0 0 0 0 -0 0 0 0
-0 -0 -0 -0 -0 -0 -0 -0 0 0 0 0 0 0 0 0 0 0 0 0 0 0 0 0 0 0 0 0 0 0 0 0 0 0 0 0 0 0 -0 -0 -0 -0 0 0 -0
-0 -0 -0 -0 -0 -0 -0 0 0 0 0 0 0 0 0 0 0 0 0 0 0 0 0 0 0 0 0 0 0 0 0 0 0 0 0 0 0 0 0 -0 -0 -0 -0 0 -0
-0 -0 -0 -0 -0 -0 -0 0 0 0 0 0 0 0 0 -0 0 0 0 0 0 0 0 0 0 0 0 0 0 0 0 0 0 0 0 0 0 0 0 0 0 0 -0 -0 -0
-0 -0 -0 -0 -0 0 0 0 0 0 0 0 0 0 -0 -0 0 0 0 0 0 0 0 0 0 0 0 0 0 0 0 0 0 0 0 0 -0 0 0 -0 -0 0 0 0 0
0 -0 -0 -0 -0 0 0 0 0 0 0 0 0 0 0 -0 0 0 0 0 0 0 0 0 0 0 0 0 0 0 0 0 0 0 0 0 0 0 0 -0 -0 -0 -0 -0 -0
0 0 0 0 0 0 0 0 0 0 0 0 0 0 0 0 0 0 0 0 0 0 0 0 0 0 0 0 0 0 0 0 0 0 0 0 0 0 0 0 -0 -0 -0 -0 -0
0 0 0 0 0 0 0 0 0 0 0 0 0 0 0 0 0 0 0 0 0 0 0 0 0 0 0 0 0 0 0 0 0 0 0 0 0 0 0 0 -0 -0 -0 -0 -0
0 0 0 0 0 0 0 0 0 0 0 0 0 0 0 0 0 0 0 0 0 0 0 0 0 0 0 0 0 0 0 0 0 0 0 0 0 0 0 0 0 0 -0 -0 -0
0 0 0 0 0 0 0 0 0 0 0 0 0 0 0 0 0 0 0 0 0 0 0 0 0 0 0 0 0 0 0 -0 0 0 0 0 0 0 0 0 0 0 0 0 0
0 0 0 0 0 0 0 0 0 0 0 0 0 0 0 0 0 0 0 0 0 0 0 0 0 0 0 0 0 0 0 0 0 0 0 0 0 0 0 0 0 0 0 0 0
0 0 0 0 0 0 0 0 0 0 0 0 0 0 0 0 0 0 0 0 0 0 0 0 0 0 0 0 0 0 0 0 0 0 0 0 0 0 0 0 -0 0 0 0 0
0 0 0 0 0 0 0 0 0 0 0 0 0 0 0 0 0 0 0 0 0 0 0 0 0 0 0 0 0 0 0 0 0 0 0 0 0 0 0 0 0 0 0 0 0
0 0 0 0 0 0 0 0 0 0 0 0 0 0 0 0 0 0 0 0 0 0 0 0 0 0 0 0 0 0 0 0 0 0 0 0 0 0 0 0 0 0 0 0 0
0 0 0 0 0 0 0 0 0 0 0 0 0 0 0 0 0 0 0 0 0 0 0 0 0 0 0 0 0 0 0 0 0 0 0 0 0 0 0 0 0 0 0 0 0
0 0 0 0 0 0 0 0 0 0 0 0 0 0 0 0 0 0 0 0 0 0 0 0 0 0 0 0 0 0 0 0 0 0 0 0 0 0 0 0 0 0 0 0 0
0 0 0 0 0 0 0 0 0 0 0 0 0 0 0 0 0 0 0 0 0 0 0 0 0 0 0 0 0 0 0 0 0 0 0 0 0 0 0 0 0 0 0 0 0
0 0 0 0 0 0 0 0 0 0 0 0 0 0 0 0 0 0 0 0 0 0 0 0 0 0 0 0 0 0 0 0 0 0 0 0 0 0 0 0 0 0 0 0 0
0 0 0 0 0 0 0 0 0 0 0 0 0 0 0 0 0 0 0 0 0 0 0 0 0 0 0 0 0 0 0 0 0 0 0 0 0 0 0 0 0 0 0 0 0
0 0 0 0 0 0 0 0 0 0 0 0 0 0 0 0 0 0 0 0 0 0 0 0 0 0 0 0 0 0 0 0 0 0 0 0 0 0 0 0 0 0 0 0 0
Wind_Speed_500mb
21 24 29 29 27 28 32 34 33 34 41 47 50 18 5 17 41 67 86 68 65 52 37 26 26 13 22 23 24 9 7 8 4 4 2 1 1 5 4 4 4 5 6 12 9
20 19 22 26 29 28 27 31 35 36 39 42 45 35 4 7 21 70 57 48 58 50 34 38 33 34 20 22 18 18 8 6 3 8 5 6 6 6 5 4 4 5 5 9 10
14 14 20 21 24 27 27 27 28 29 34 41 39 44 20 4 11 40 51 53 47 51 51 28 19 28 49 27 29 17 10 13 12 14 12 7 2 3 0 3 9 7 8 7 12
10 9 11 14 20 26 29 27 23 21 27 29 34 25 40 19 9 28 49 52 48 36 31 45 50 31 25 35 28 15 16 9 14 13 10 9 7 2 14 11 12 10 8 10 12
6 6 6 9 16 21 28 28 21 20 24 30 28 28 15 28 17 22 37 50 47 38 35 34 43 34 23 19 28 23 14 18 14 10 7 9 4 5 14 14 11 10 11 13 18
4 4 6 7 15 20 27 26 23 22 23 26 22 24 13 15 18 26 31 37 43 47 47 37 23 29 31 21 27 18 22 8 3 2 5 2 4 2 17 17 14 13 15 18 20
7 5 6 9 13 18 26 25 23 24 23 22 20 7 34 18 19 25 30 31 33 32 40 39 30 8 12 14 19 10 9 8 3 4 7 11 10 14 17 27 20 22 21 24 26
8 7 6 7 7 15 25 26 20 21 25 19 19 12 11 20 20 23 25 26 22 23 31 27 20 36 16 21 12 5 7 12 13 8 1 4 4 12 23 27 25 26 26 24 25
8 9 7 4 5 15 24 26 21 15 22 12 14 8 6 16 23 27 25 21 15 15 19 16 14 14 13 7 4 11 17 17 3 5 9 12 20 14 26 27 23 25 25 27 28
8 9 9 9 15 20 23 23 18 8 21 7 10 7 9 8 16 27 28 20 11 9 5 6 4 11 21 16 8 19 20 21 17 10 13 22 33 11 29 34 32 29 30 31 32
9 11 10 9 9 15 17 13 11 6 20 12 10 5 7 13 8 24 21 13 13 9 9 12 14 18 15 14 8 1 10 19 19 8 25 12 24 25 33 41 40 39 38 36 35
10 13 14 14 12 12 15 7 10 4 6 10 7 6 10 16 8 22 20 7 13 12 8 5 11 7 5 4 5 7 9 12 12 4 18 25 45 31 31 46 48 43 42 41 38
10 13 16 16 12 11 12 13 12 11 5 4 8 5 6 11 6 17 20 10 11 12 20 13 5 2 8 8 13 4 7 10 11 27 11 30 13 6 17 39 42 47 44 44 45
10 13 14 16 7 12 9 15 18 17 4 4 3 4 8 6 2 13 15 7 5 5 5 7 3 6 7 5 12 8 8 11 16 19 6 18 8 8 10 22 37 47 54 52 52
11 12 13 12 9 9 9 13 20 6 7 2 2 7 9 6 7 3 11 6 4 4 4 4 1 6 9 7 6 8 13 14 13 6 5 5 4 3 6 14 34 50 58 59 56
12 11 10 9 9 10 10 14 11 10 8 3 6 6 7 2 4 10 5 5 5 3 4 5 3 0 3 5 7 19 13 12 6 5 5 6 6 12 4 6 5 15 51 59 61
9 10 9 7 7 9 11 10 9 7 3 7 3 6 5 5 2 6 5 7 6 8 5 6 5 4 3 5 7 11 16 6 4 5 4 5 9 21 20 16 14 6 22 45 56
8 10 10 7 6 6 6 3 3 5 11 2 3 5 6 5 3 5 7 8 7 8 7 6 5 3 3 4 4 4 5 7 12 10 13 3 12 4 7 13 10 23 26 22 48
17 18 16 10 7 4 2 5 12 10 6 9 4 6 3 2 4 5 6 7 4 13 6 9 5 7 6 3 6 3 3 4 1 3 4 7 11 21 5 12 22 30 22 34 38
19 23 31 21 16 10 5 9 7 1 8 3 4 6 6 3 4 1 4 4 3 2 3 5 13 2 5 3 3 5 3 4 5 9 13 10 7 12 10 5 7 9 21 29 32
20 11 14 12 18 9 6 13 7 9 10 6 5 6 12 9 6 4 10 1 4 5 3 2 3 6 4 15 13 8 8 9 4 6 9 13 7 9 15 3 7 12 12 15 27
29 9 15 20 8 2 6 9 4 4 9 9 5 8 9 10 7 10 12 10 8 11 4 4 5 11 20 8 7 5 7 14 9 10 9 8 21 33 2 10 19 30 28 36 30
19 20 22 36 8 6 5 7 8 11 11 7 8 11 7 7 7 16 4 9 2 1 3 3 4 11 6 4 2 8 11 14 3 4 22 18 24 2 5 6 18 34 60 59 53
23 3 9 29 7 5 8 7 7 6 3 3 3 1 3 6 10 7 3 5 6 4 3 2 3 13 28 33 32 21 12 13 13 12 35 50 74 37 45 47 52 60 71 75 67
24 9 12 8 9 6 5 6 2 4 3 5 5 7 6 4 7 8 9 6 6 5 3 1 18 22 38 41 36 49 36 34 31 37 35 79 63 44 55 54 69 86 102 81 80
18 11 10 7 14 14 9 9 9 4 4 3 4 9 2 5 14 6 6 5 12 7 4 2 8 7 48 20 33 62 38 42 48 53 61 62 76 42 69 71 74 80 71 64 65
20 22 17 17 11 8 10 11 11 15 11 12 14 11 16 25 29 32 31 33 36 19 11 11 7 8 27 6 18 38 24 36 36 38 39 46 57 40 46 47 68 73 49 50 63
Wind_Direction_500mb
76 77 52 49 48 46 45 38 33 28 25 25 24 31 198 356 18 26 31 9 8 5 7 349 10 340 36 42 39 339 102 86 47 11 98 231 82 23 34 240 245 198 231 261 206
86 80 53 50 46 39 34 30 30 30 27 28 29 32 34 346 10 34 23 18 18 18 23 28 22 35 55 24 20 6 72 112 334 357 119 85 15 16 334 303 325 312 217 185 200
86 67 49 41 42 36 24 19 23 31 28 27 29 32 35 67 40 14 19 19 24 27 31 32 12 50 33 42 18 22 67 113 66 95 121 120 162 216 337 298 243 258 265 177 172
70 56 46 43 36 27 19 13 14 21 17 20 23 23 46 58 46 16 27 25 31 30 31 50 54 56 55 49 42 90 69 97 156 156 162 175 156 158 205 239 217 231 244 213 190
66 47 47 44 29 22 16 9 10 12 14 19 26 25 45 57 51 24 24 24 37 35 46 59 63 74 64 39 52 64 72 66 90 106 86 124 191 254 228 192 174 191 213 218 205
39 353 8 3 11 16 15 19 21 12 9 13 22 33 43 71 25 24 17 12 34 37 52 61 64 90 75 56 47 60 74 97 49 306 166 50 295 338 228 195 189 196 208 212 216
26 350 330 345 353 6 7 5 9 6 5 7 11 44 50 65 29 20 18 18 28 36 46 59 69 92 101 106 113 135 5 158 173 305 285 285 222 231 195 190 212 215 218 212 205
20 7 356 338 349 355 356 353 350 359 358 5 14 46 83 33 24 16 11 16 12 29 38 53 86 80 71 115 132 254 255 328 56 345 111 208 328 202 187 197 212 209 214 216 213
17 19 17 5 341 340 342 341 335 352 357 16 26 95 57 10 8 4 356 359 360 5 17 64 77 91 146 264 162 52 2 3 150 40 317 253 317 188 196 211 225 219 219 220 219
11 5 360 345 333 330 334 334 336 357 9 46 36 96 41 345 360 1 2 359 358 352 28 26 83 83 41 52 60 342 356 343 352 4 316 261 266 233 218 218 227 224 221 220 219
347 353 348 346 341 336 341 342 360 341 21 61 16 53 356 344 344 359 358 353 2 48 12 9 54 46 38 45 103 241 305 313 333 8 328 274 276 274 216 228 230 225 219 219 220
339 339 343 348 350 356 354 29 39 341 4 36 42 22 355 1 351 349 2 9 14 24 343 204 55 19 332 334 299 329 329 358 303 307 323 309 295 264 214 222 224 225 224 220 214
333 333 338 343 350 8 15 19 2 10 298 359 27 13 341 356 360 341 19 22 23 21 9 43 80 334 319 335 344 39 6 360 323 316 91 317 272 199 219 213 222 227 228 224 219
322 332 340 344 353 354 2 354 343 352 277 82 32 331 342 334 260 356 13 35 84 40 22 53 95 310 308 345 333 326 17 318 328 354 348 14 289 265 187 219 226 225 225 224 219
310 326 339 350 342 352 350 340 332 7 347 78 50 315 328 343 320 346 8 19 21 78 260 64 182 327 306 9 337 348 330 321 318 343 295 31 292 249 135 249 236 227 225 224 223
295 309 322 328 337 353 349 336 337 34 265 359 329 332 306 359 339 319 350 26 113 173 56 66 69 129 67 285 277 312 288 250 292 309 329 124 33 289 196 243 355 247 223 221 219
323 312 303 311 315 335 351 355 27 135 344 299 322 352 332 323 316 352 312 246 275 309 245 165 131 107 298 267 191 288 301 307 338 355 316 106 273 257 284 272 242 259 221 219 220
325 332 327 300 286 318 11 72 144 199 227 109 265 262 264 4 166 309 284 287 213 234 291 304 297 188 69 16 331 35 354 322 310 307 302 25 232 243 261 219 246 234 236 225 215
309 308 300 307 271 245 119 70 214 207 108 157 191 248 227 171 288 318 241 277 278 206 279 302 271 107 57 337 313 65 205 116 56 112 277 230 262 278 251 271 244 237 235 225 219
284 299 285 266 232 194 84 231 255 213 131 153 272 223 264 195 253 202 248 148 188 169 74 14 281 75 89 239 146 291 22 245 151 290 287 226 261 247 268 263 243 251 257 248 237
267 288 267 223 183 173 180 222 260 217 194 223 247 271 265 298 245 253 295 218 25 106 209 260 211 118 170 206 198 163 202 212 316 248 263 291 244 233 253 301 322 318 308 264 233
243 231 244 182 151 162 173 206 248 186 207 243 267 252 244 293 244 259 251 240 89 148 238 56 241 260 277 83 10 316 280 194 220 202 242 277 268 260 303 312 322 298 284 299 275
220 222 211 188 174 218 234 244 239 198 195 180 248 235 209 231 274 229 238 37 109 132 17 96 240 310 243 158 72 216 198 230 350 292 239 262 250 237 98 301 312 293 296 291 289
222 197 180 196 204 180 158 212 217 184 104 153 272 21 58 245 239 291 359 56 64 95 95 191 254 244 261 287 326 265 209 224 210 249 271 249 275 264 280 286 289 282 279 281 283
209 217 184 175 224 193 149 111 191 121 95 80 79 102 123 266 306 265 357 304 118 28 67 341 267 259 264 276 286 276 273 268 231 243 249 273 269 284 286 293 295 291 287 291 291
175 152 142 126 114 146 183 205 185 116 113 280 194 180 263 239 233 289 343 271 265 107 187 97 279 334 282 260 267 275 278 272 261 257 256 260 269 276 282 282 280 279 286 287 287
180 161 147 155 152 177 189 172 188 153 226 226 208 195 234 253 262 269 268 258 252 255 220 187 235 262 271 64 314 277 239 242 261 251 247 257 265 287 275 264 265 278 287 292 297
Wind_Speed_850mb
21 24 29 29 27 28 32 34 33 34 41 47 50 18 5 17 41 67 86 68 65 52 37 26 26 13 22 23 24 9 7 8 4 4 2 1 1 5 4 4 4 5 6 12 9
20 19 22 26 29 28 27 31 35 36 39 42 45 35 4 7 21 70 57 48 58 50 34 38 33 34 20 22 18 18 8 6 3 8 5 6 6 6 5 4 4 5 5 9 10
14 14 20 21 24 27 27 27 28 29 34 41 39 44 20 4 11 40 51 53 47 51 51 28 19 28 49 27 29 17 10 13 12 14 12 7 2 3 0 3 9 7 8 7 12
10 9 11 14 20 26 29 27 23 21 27 29 34 25 40 19 9 28 49 52 48 36 31 45 50 31 25 35 28 15 16 9 14 13 10 9 7 2 14 11 12 10 8 10 12
6 6 6 9 16 21 28 28 21 20 24 30 28 28 15 28 17 22 37 50 47 38 35 34 43 34 23 19 28 23 14 18 14 10 7 9 4 5 14 14 11 10 11 13 18
4 4 6 7 15 20 27 26 23 22 23 26 22 24 13 15 18 26 31 37 43 47 47 37 23 29 31 21 27 18 22 8 3 2 5 2 4 2 17 17 14 13 15 18 20
7 5 6 9 13 18 26 25 23 24 23 22 20 7 34 18 19 25 30 31 33 32 40 39 30 8 12 14 19 10 9 8 3 4 7 11 10 14 17 27 20 22 21 24 26
8 7 6 7 7 15 25 26 20 21 25 19 19 12 11 20 20 23 25 26 22 23 31 27 20 36 16 21 12 5 7 12 13 8 1 4 4 12 23 27 25 26 26 24 25
8 9 7 4 5 15 24 26 21 15 22 12 14 8 6 16 23 27 25 21 15 15 19 16 14 14 13 7 4 11 17 17 3 5 9 12 20 14 26 27 23 25 25 27 28
8 9 9 9 15 20 23 23 18 8 21 7 10 7 9 8 16 27 28 20 11 9 5 6 4 11 21 16 8 19 20 21 17 10 13 22 33 11 29 34 32 29 30 31 32
9 11 10 9 9 15 17 13 11 6 20 12 10 5 7 13 8 24 21 13 13 9 9 12 14 18 15 14 8 1 10 19 19 8 25 12 24 25 33 41 40 39 38 36 35
10 13 14 14 12 12 15 7 10 4 6 10 7 6 10 16 8 22 20 7 13 12 8 5 11 7 5 4 5 7 9 12 12 4 18 25 45 31 31 46 48 43 42 41 38
10 13 16 16 12 11 12 13 12 11 5 4 8 5 6 11 6 17 20 10 11 12 20 13 5 2 8 8 13 4 7 10 11 27 11 30 13 6 17 39 42 47 44 44 45
10 13 14 16 7 12 9 15 18 17 4 4 3 4 8 6 2 13 15 7 5 5 5 7 3 6 7 5 12 8 8 11 16 19 6 18 8 8 10 22 37 47 54 52 52
11 12 13 12 9 9 9 13 20 6 7 2 2 7 9 6 7 3 11 6 4 4 4 4 1 6 9 7 6 8 13 14 13 6 5 5 4 3 6 14 34 50 58 59 56
12 11 10 9 9 10 10 14 11 10 8 3 6 6 7 2 4 10 5 5 5 3 4 5 3 0 3 5 7 19 13 12 6 5 5 6 6 12 4 6 5 15 51 59 61
9 10 9 7 7 9 11 10 9 7 3 7 3 6 5 5 2 6 5 7 6 8 5 6 5 4 3 5 7 11 16 6 4 5 4 5 9 21 20 16 14 6 22 45 56
8 10 10 7 6 6 6 3 3 5 11 2 3 5 6 5 3 5 7 8 7 8 7 6 5 3 3 4 4 4 5 7 12 10 13 3 12 4 7 13 10 23 26 22 48
17 18 16 10 7 4 2 5 12 10 6 9 4 6 3 2 4 5 6 7 4 13 6 9 5 7 6 3 6 3 3 4 1 3 4 7 11 21 5 12 22 30 22 34 38
19 23 31 21 16 10 5 9 7 1 8 3 4 6 6 3 4 1 4 4 3 2 3 5 13 2 5 3 3 5 3 4 5 9 13 10 7 12 10 5 7 9 21 29 32
20 11 14 12 18 9 6 13 7 9 10 6 5 6 12 9 6 4 10 1 4 5 3 2 3 6 4 15 13 8 8 9 4 6 9 13 7 9 15 3 7 12 12 15 27
29 9 15 20 8 2 6 9 4 4 9 9 5 8 9 10 7 10 12 10 8 11 4 4 5 11 20 8 7 5 7 14 9 10 9 8 21 33 2 10 19 30 28 36 30
19 20 22 36 8 6 5 7 8 11 11 7 8 11 7 7 7 16 4 9 2 1 3 3 4 11 6 4 2 8 11 14 3 4 22 18 24 2 5 6 18 34 60 59 53
23 3 9 29 7 5 8 7 7 6 3 3 3 1 3 6 10 7 3 5 6 4 3 2 3 13 28 33 32 21 12 13 13 12 35 50 74 37 45 47 52 60 71 75 67
24 9 12 8 9 6 5 6 2 4 3 5 5 7 6 4 7 8 9 6 6 5 3 1 18 22 38 41 36 49 36 34 31 37 35 79 63 44 55 54 69 86 102 81 80
18 11 10 7 14 14 9 9 9 4 4 3 4 9 2 5 14 6 6 5 12 7 4 2 8 7 48 20 33 62 38 42 48 53 61 62 76 42 69 71 74 80 71 64 65
20 22 17 17 11 8 10 11 11 15 11 12 14 11 16 25 29 32 31 33 36 19 11 11 7 8 27 6 18 38 24 36 36 38 39 46 57 40 46 47 68 73 49 50 63
Wind_Direction_850mb
76 77 52 49 48 46 45 38 33 28 25 25 24 31 198 356 18 26 31 9 8 5 7 349 10 340 36 42 39 339 102 86 47 11 98 231 82 23 34 240 245 198 231 261 206
86 80 53 50 46 39 34 30 30 30 27 28 29 32 34 346 10 34 23 18 18 18 23 28 22 35 55 24 20 6 72 112 334 357 119 85 15 16 334 303 325 312 217 185 200
86 67 49 41 42 36 24 19 23 31 28 27 29 32 35 67 40 14 19 19 24 27 31 32 12 50 33 42 18 22 67 113 66 95 121 120 162 216 337 298 243 258 265 177 172
70 56 46 43 36 27 19 13 14 21 17 20 23 23 46 58 46 16 27 25 31 30 31 50 54 56 55 49 42 90 69 97 156 156 162 175 156 158 205 239 217 231 244 213 190
66 47 47 44 29 22 16 9 10 12 14 19 26 25 45 57 51 24 24 24 37 35 46 59 63 74 64 39 52 64 72 66 90 106 86 124 191 254 228 192 174 191 213 218 205
39 353 8 3 11 16 15 19 21 12 9 13 22 33 43 71 25 24 17 12 34 37 52 61 64 90 75 56 47 60 74 97 49 306 166 50 295 338 228 195 189 196 208 212 216
26 350 330 345 353 6 7 5 9 6 5 7 11 44 50 65 29 20 18 18 28 36 46 59 69 92 101 106 113 135 5 158 173 305 285 285 222 231 195 190 212 215 218 212 205
20 7 356 338 349 355 356 353 350 359 358 5 14 46 83 33 24 16 11 16 12 29 38 53 86 80 71 115 132 254 255 328 56 345 111 208 328 202 187 197 212 209 214 216 213
17 19 17 5 341 340 342 341 335 352 357 16 26 95 57 10 8 4 356 359 360 5 17 64 77 91 146 264 162 52 2 3 150 40 317 253 317 188 196 211 225 219 219 220 219
11 5 360 345 333 330 334 334 336 357 9 46 36 96 41 345 360 1 2 359 358 352 28 26 83 83 41 52 60 342 356 343 352 4 316 261 266 233 218 218 227 224 221 220 219
347 353 348 346 341 336 341 342 360 341 21 61 16 53 356 344 344 359 358 353 2 48 12 9 54 46 38 45 103 241 305 313 333 8 328 274 276 274 216 228 230 225 219 219 220
339 339 343 348 350 356 354 29 39 341 4 36 42 22 355 1 351 349 2 9 14 24 343 204 55 19 332 334 299 329 329 358 303 307 323 309 295 264 214 222 224 225 224 220 214
333 333 338 343 350 8 15 19 2 10 298 359 27 13 341 356 360 341 19 22 23 21 9 43 80 334 319 335 344 39 6 360 323 316 91 317 272 199 219 213 222 227 228 224 219
322 332 340 344 353 354 2 354 343 352 277 82 32 331 342 334 260 356 13 35 84 40 22 53 95 310 308 345 333 326 17 318 328 354 348 14 289 265 187 219 226 225 225 224 219
310 326 339 350 342 352 350 340 332 7 347 78 50 315 328 343 320 346 8 19 21 78 260 64 182 327 306 9 337 348 330 321 318 343 295 31 292 249 135 249 236 227 225 224 223
295 309 322 328 337 353 349 336 337 34 265 359 329 332 306 359 339 319 350 26 113 173 56 66 69 129 67 285 277 312 288 250 292 309 329 124 33 289 196 243 355 247 223 221 219
323 312 303 311 315 335 351 355 27 135 344 299 322 352 332 323 316 352 312 246 275 309 245 165 131 107 298 267 191 288 301 307 338 355 316 106 273 257 284 272 242 259 221 219 220
325 332 327 300 286 318 11 72 144 199 227 109 265 262 264 4 166 309 284 287 213 234 291 304 297 188 69 16 331 35 354 322 310 307 302 25 232 243 261 219 246 234 236 225 215
309 308 300 307 271 245 119 70 214 207 108 157 191 248 227 171 288 318 241 277 278 206 279 302 271 107 57 337 313 65 205 116 56 112 277 230 262 278 251 271 244 237 235 225 219
284 299 285 266 232 194 84 231 255 213 131 153 272 223 264 195 253 202 248 148 188 169 74 14 281 75 89 239 146 291 22 245 151 290 287 226 261 247 268 263 243 251 257 248 237
267 288 267 223 183 173 180 222 260 217 194 223 247 271 265 298 245 253 295 218 25 106 209 260 211 118 170 206 198 163 202 212 316 248 263 291 244 233 253 301 322 318 308 264 233
243 231 244 182 151 162 173 206 248 186 207 243 267 252 244 293 244 259 251 240 89 148 238 56 241 260 277 83 10 316 280 194 220 202 242 277 268 260 303 312 322 298 284 299 275
220 222 211 188 174 218 234 244 239 198 195 180 248 235 209 231 274 229 238 37 109 132 17 96 240 310 243 158 72 216 198 230 350 292 239 262 250 237 98 301 312 293 296 291 289
222 197 180 196 204 180 158 212 217 184 104 153 272 21 58 245 239 291 359 56 64 95 95 191 254 244 261 287 326 265 209 224 210 249 271 249 275 264 280 286 289 282 279 281 283
209 217 184 175 224 193 149 111 191 121 95 80 79 102 123 266 306 265 357 304 118 28 67 341 267 259 264 276 286 276 273 268 231 243 249 273 269 284 286 293 295 291 287 291 291
175 152 142 126 114 146 183 205 185 116 113 280 194 180 263 239 233 289 343 271 265 107 187 97 279 334 282 260 267 275 278 272 261 257 256 260 269 276 282 282 280 279 286 287 287
180 161 147 155 152 177 189 172 188 153 226 226 208 195 234 253 262 269 268 258 252 255 220 187 235 262 271 64 314 277 239 242 261 251 247 257 265 287 275 264 265 278 287 292 297